Time,TemperatureF,DewpointF,PressureIn,WindDirection,WindDirectionDegrees,WindSpeedMPH,WindSpeedGustMPH,Humidity,HourlyPrecipIn,Conditions,Clouds,dailyrainin,SoftwareType,DateUTC
2013-02-03 00:00:00,55.0,54.2,30.12,NW,315,0.0,0.0,97,0.00,CLR,,0.00,WeatherDisplay:10.37,2013-02-03 05:00:00,
2013-02-03 00:01:00,55.0,54.2,30.12,NW,315,0.0,0.0,97,0.00,CLR,,0.00,WeatherDisplay:10.37,2013-02-03 05:01:00,
2013-02-03 00:03:00,55.0,54.2,30.12,WNW,292,0.0,0.0,97,0.00,CLR,,0.00,WeatherDisplay:10.37,2013-02-03 05:03:00,
2013-02-03 00:07:00,55.0,54.2,30.12,WNW,292,0.0,0.0,97,0.00,CLR,,0.00,WeatherDisplay:10.37,2013-02-03 05:07:00,
2013-02-03 00:12:00,55.0,54.2,30.12,NW,315,0.0,0.0,97,0.00,CLR,,0.00,WeatherDisplay:10.37,2013-02-03 05:12:00,
2013-02-03 00:17:00,55.0,54.2,30.12,South,180,2.3,2.3,97,0.00,CLR,,0.00,WeatherDisplay:10.37,2013-02-03 05:17:00,
2013-02-03 00:22:00,54.9,54.1,30.12,SSW,202,0.0,0.0,97,0.00,CLR,,0.00,WeatherDisplay:10.37,2013-02-03 05:22:00,
2013-02-03 00:27:00,54.9,54.1,30.11,NW,315,0.0,0.0,97,0.00,CLR,,0.00,WeatherDisplay:10.37,2013-02-03 05:27:00,
2013-02-03 00:32:00,54.9,54.3,30.11,SSE,158,0.0,0.0,98,0.00,CLR,,0.00,WeatherDisplay:10.37,2013-02-03 05:32:00,
2013-02-03 00:37:00,54.7,54.1,30.11,West,270,0.0,0.0,98,0.00,CLR,,0.00,WeatherDisplay:10.37,2013-02-03 05:37:00,
2013-02-03 00:42:00,54.7,54.1,30.10,SSW,202,0.0,0.0,98,0.00,CLR,,0.00,WeatherDisplay:10.37,2013-02-03 05:42:00,
2013-02-03 00:47:00,54.7,54.1,30.10,NW,315,0.0,0.0,98,0.00,CLR,,0.00,WeatherDisplay:10.37,2013-02-03 05:47:00,
2013-02-03 00:52:00,54.7,54.1,30.10,North,360,1.1,1.1,98,0.00,CLR,,0.00,WeatherDisplay:10.37,2013-02-03 05:52:00,
2013-02-03 00:57:00,54.7,54.1,30.10,NNW,338,0.0,0.0,98,0.00,CLR,,0.00,WeatherDisplay:10.37,2013-02-03 05:57:00,
2013-02-03 01:02:00,54.7,54.1,30.09,NW,315,0.0,0.0,98,0.00,CLR,,0.00,WeatherDisplay:10.37,2013-02-03 06:02:00,
2013-02-03 01:07:00,54.5,53.9,30.09,WNW,292,0.0,0.0,98,0.00,CLR,,0.00,WeatherDisplay:10.37,2013-02-03 06:07:00,
2013-02-03 01:12:00,54.3,53.7,30.09,West,270,1.7,1.7,98,0.00,CLR,,0.00,WeatherDisplay:10.37,2013-02-03 06:12:00,
2013-02-03 01:17:00,54.1,53.5,30.09,SSE,158,2.2,2.2,98,0.00,CLR,,0.00,WeatherDisplay:10.37,2013-02-03 06:17:00,
2013-02-03 01:22:00,54.1,53.5,30.09,South,180,1.1,1.1,98,0.00,CLR,,0.00,WeatherDisplay:10.37,2013-02-03 06:22:00,
2013-02-03 01:27:00,54.1,53.5,30.09,South,180,1.1,1.1,98,0.00,CLR,,0.00,WeatherDisplay:10.37,2013-02-03 06:27:00,
2013-02-03 01:32:00,54.1,53.5,30.09,South,180,1.1,1.1,98,0.00,CLR,,0.00,WeatherDisplay:10.37,2013-02-03 06:32:00,
2013-02-03 01:37:00,54.1,53.5,30.09,South,180,1.1,1.1,98,0.00,CLR,,0.00,WeatherDisplay:10.37,2013-02-03 06:37:00,
2013-02-03 01:42:00,54.1,53.5,30.09,South,180,1.1,1.1,98,0.00,CLR,,0.00,WeatherDisplay:10.37,2013-02-03 06:42:00,
2013-02-03 01:47:00,54.1,53.5,30.09,South,180,1.1,1.1,98,0.00,CLR,,0.00,WeatherDisplay:10.37,2013-02-03 06:47:00,
2013-02-03 01:52:00,54.1,53.5,30.09,South,180,1.1,1.1,98,0.00,CLR,,0.00,WeatherDisplay:10.37,2013-02-03 06:52:00,
2013-02-03 01:57:00,54.1,53.5,30.09,South,180,1.1,1.1,98,0.00,CLR,,0.00,WeatherDisplay:10.37,2013-02-03 06:57:00,
2013-02-03 02:02:00,54.1,53.5,30.09,South,180,1.1,1.1,98,0.00,CLR,,0.00,WeatherDisplay:10.37,2013-02-03 07:02:00,
2013-02-03 02:07:00,54.1,53.5,30.09,South,180,1.1,1.1,98,0.00,CLR,,0.00,WeatherDisplay:10.37,2013-02-03 07:07:00,
2013-02-03 02:12:00,54.1,53.5,30.09,South,180,1.1,1.1,98,0.00,CLR,,0.00,WeatherDisplay:10.37,2013-02-03 07:12:00,
2013-02-03 02:17:00,54.1,53.5,30.09,South,180,1.1,1.1,98,0.00,CLR,,0.00,WeatherDisplay:10.37,2013-02-03 07:17:00,
2013-02-03 02:22:00,54.1,53.5,30.09,South,180,1.1,1.1,98,0.00,CLR,,0.00,WeatherDisplay:10.37,2013-02-03 07:22:00,
2013-02-03 02:27:00,54.1,53.5,30.09,South,180,1.1,1.1,98,0.00,CLR,,0.00,WeatherDisplay:10.37,2013-02-03 07:27:00,
2013-02-03 02:32:00,54.1,53.5,30.09,South,180,1.1,1.1,98,0.00,CLR,,0.00,WeatherDisplay:10.37,2013-02-03 07:32:00,
2013-02-03 02:37:00,54.1,53.5,30.09,South,180,1.1,1.1,98,0.00,CLR,,0.00,WeatherDisplay:10.37,2013-02-03 07:37:00,
2013-02-03 02:42:00,54.1,53.5,30.09,South,180,1.1,1.1,98,0.00,CLR,,0.00,WeatherDisplay:10.37,2013-02-03 07:42:00,
2013-02-03 02:47:00,54.1,53.5,30.09,South,180,1.1,1.1,98,0.00,CLR,,0.00,WeatherDisplay:10.37,2013-02-03 07:47:00,
2013-02-03 02:52:00,54.1,53.5,30.09,South,180,1.1,1.1,98,0.00,CLR,,0.00,WeatherDisplay:10.37,2013-02-03 07:52:00,
2013-02-03 02:57:00,54.1,53.5,30.09,South,180,1.1,1.1,98,0.00,CLR,,0.00,WeatherDisplay:10.37,2013-02-03 07:57:00,
2013-02-03 03:02:00,54.1,53.5,30.09,South,180,1.1,1.1,98,0.00,CLR,,0.00,WeatherDisplay:10.37,2013-02-03 08:02:00,
2013-02-03 03:07:00,54.1,53.5,30.09,South,180,1.1,1.1,98,0.00,CLR,,0.00,WeatherDisplay:10.37,2013-02-03 08:07:00,
2013-02-03 03:12:00,54.1,53.5,30.09,South,180,1.1,1.1,98,0.00,CLR,,0.00,WeatherDisplay:10.37,2013-02-03 08:12:00,
2013-02-03 03:17:00,54.1,53.5,30.09,South,180,1.1,1.1,98,0.00,CLR,,0.00,WeatherDisplay:10.37,2013-02-03 08:17:00,
2013-02-03 03:22:00,54.1,53.5,30.09,South,180,1.1,1.1,98,0.00,CLR,,0.00,WeatherDisplay:10.37,2013-02-03 08:22:00,
2013-02-03 03:27:00,54.1,53.5,30.09,South,180,1.1,1.1,98,0.00,CLR,,0.00,WeatherDisplay:10.37,2013-02-03 08:27:00,
2013-02-03 03:32:00,54.1,53.5,30.09,South,180,1.1,1.1,98,0.00,CLR,,0.00,WeatherDisplay:10.37,2013-02-03 08:32:00,
2013-02-03 03:37:00,54.1,53.5,30.09,South,180,1.1,1.1,98,0.00,CLR,,0.00,WeatherDisplay:10.37,2013-02-03 08:37:00,
2013-02-03 03:42:00,54.1,53.5,30.09,South,180,1.1,1.1,98,0.00,CLR,,0.00,WeatherDisplay:10.37,2013-02-03 08:42:00,
2013-02-03 03:47:00,54.1,53.5,30.09,South,180,1.1,1.1,98,0.00,CLR,,0.00,WeatherDisplay:10.37,2013-02-03 08:47:00,
2013-02-03 03:52:00,54.1,53.5,30.09,South,180,1.1,1.1,98,0.00,CLR,,0.00,WeatherDisplay:10.37,2013-02-03 08:52:00,
2013-02-03 03:57:00,54.1,53.5,30.09,South,180,1.1,1.1,98,0.00,CLR,,0.00,WeatherDisplay:10.37,2013-02-03 08:57:00,
2013-02-03 04:02:00,54.1,53.5,30.09,South,180,1.1,1.1,98,0.00,CLR,,0.00,WeatherDisplay:10.37,2013-02-03 09:02:00,
2013-02-03 04:07:00,54.1,53.5,30.09,South,180,1.1,1.1,98,0.00,CLR,,0.00,WeatherDisplay:10.37,2013-02-03 09:07:00,
2013-02-03 04:12:00,54.1,53.5,30.09,South,180,1.1,1.1,98,0.00,CLR,,0.00,WeatherDisplay:10.37,2013-02-03 09:12:00,
2013-02-03 04:17:00,54.1,53.5,30.09,South,180,1.1,1.1,98,0.00,CLR,,0.00,WeatherDisplay:10.37,2013-02-03 09:17:00,
2013-02-03 04:22:00,54.1,53.5,30.09,South,180,1.1,1.1,98,0.00,CLR,,0.00,WeatherDisplay:10.37,2013-02-03 09:22:00,
2013-02-03 04:27:00,54.1,53.5,30.09,South,180,1.1,1.1,98,0.00,CLR,,0.00,WeatherDisplay:10.37,2013-02-03 09:27:00,
2013-02-03 04:32:00,54.1,53.5,30.09,South,180,1.1,1.1,98,0.00,CLR,,0.00,WeatherDisplay:10.37,2013-02-03 09:32:00,
2013-02-03 04:37:00,54.1,53.5,30.09,South,180,1.1,1.1,98,0.00,CLR,,0.00,WeatherDisplay:10.37,2013-02-03 09:37:00,
2013-02-03 04:42:00,54.1,53.5,30.09,South,180,1.1,1.1,98,0.00,CLR,,0.00,WeatherDisplay:10.37,2013-02-03 09:42:00,
2013-02-03 04:47:00,54.1,53.5,30.09,South,180,1.1,1.1,98,0.00,CLR,,0.00,WeatherDisplay:10.37,2013-02-03 09:47:00,
2013-02-03 04:52:00,54.1,53.5,30.09,South,180,1.1,1.1,98,0.00,CLR,,0.00,WeatherDisplay:10.37,2013-02-03 09:52:00,
2013-02-03 04:57:00,54.1,53.5,30.09,South,180,1.1,1.1,98,0.00,CLR,,0.00,WeatherDisplay:10.37,2013-02-03 09:57:00,
2013-02-03 05:02:00,54.1,53.5,30.09,South,180,1.1,1.1,98,0.00,CLR,,0.00,WeatherDisplay:10.37,2013-02-03 10:02:00,
2013-02-03 05:07:00,54.1,53.5,30.09,South,180,1.1,1.1,98,0.00,CLR,,0.00,WeatherDisplay:10.37,2013-02-03 10:07:00,
2013-02-03 05:12:00,54.1,53.5,30.09,South,180,1.1,1.1,98,0.00,CLR,,0.00,WeatherDisplay:10.37,2013-02-03 10:12:00,
2013-02-03 05:17:00,54.1,53.5,30.09,South,180,1.1,1.1,98,0.00,CLR,,0.00,WeatherDisplay:10.37,2013-02-03 10:17:00,
2013-02-03 05:22:00,54.1,53.5,30.09,South,180,1.1,1.1,98,0.00,CLR,,0.00,WeatherDisplay:10.37,2013-02-03 10:22:00,
2013-02-03 05:27:00,54.1,53.5,30.09,South,180,1.1,1.1,98,0.00,CLR,,0.00,WeatherDisplay:10.37,2013-02-03 10:27:00,
2013-02-03 05:32:00,54.1,53.5,30.09,South,180,1.1,1.1,98,0.00,CLR,,0.00,WeatherDisplay:10.37,2013-02-03 10:32:00,
2013-02-03 05:37:00,54.1,53.5,30.09,South,180,1.1,1.1,98,0.00,CLR,,0.00,WeatherDisplay:10.37,2013-02-03 10:37:00,
2013-02-03 05:42:00,54.1,53.5,30.09,South,180,1.1,1.1,98,0.00,CLR,,0.00,WeatherDisplay:10.37,2013-02-03 10:42:00,
2013-02-03 05:47:00,54.1,53.5,30.09,South,180,1.1,1.1,98,0.00,CLR,,0.00,WeatherDisplay:10.37,2013-02-03 10:47:00,
2013-02-03 05:52:00,54.1,53.5,30.09,South,180,1.1,1.1,98,0.00,CLR,,0.00,WeatherDisplay:10.37,2013-02-03 10:52:00,
2013-02-03 05:57:00,54.1,53.5,30.09,South,180,1.1,1.1,98,0.00,CLR,,0.00,WeatherDisplay:10.37,2013-02-03 10:57:00,
2013-02-03 06:02:00,54.1,53.5,30.09,South,180,1.1,1.1,98,0.00,CLR,,0.00,WeatherDisplay:10.37,2013-02-03 11:02:00,
2013-02-03 06:07:00,54.1,53.5,30.09,South,180,1.1,1.1,98,0.00,CLR,,0.00,WeatherDisplay:10.37,2013-02-03 11:07:00,
2013-02-03 06:12:00,54.1,53.5,30.09,South,180,1.1,1.1,98,0.00,CLR,,0.00,WeatherDisplay:10.37,2013-02-03 11:12:00,
2013-02-03 06:17:00,54.1,53.5,30.09,South,180,1.1,1.1,98,0.00,CLR,,0.00,WeatherDisplay:10.37,2013-02-03 11:17:00,
2013-02-03 06:22:00,54.1,53.5,30.09,South,180,1.1,1.1,98,0.00,CLR,,0.00,WeatherDisplay:10.37,2013-02-03 11:22:00,
2013-02-03 06:27:00,54.1,53.5,30.09,South,180,1.1,1.1,98,0.00,CLR,,0.00,WeatherDisplay:10.37,2013-02-03 11:27:00,
2013-02-03 06:32:00,54.1,53.5,30.09,South,180,1.1,1.1,98,0.00,CLR,,0.00,WeatherDisplay:10.37,2013-02-03 11:32:00,
2013-02-03 06:37:00,54.1,53.5,30.09,South,180,1.1,1.1,98,0.00,CLR,,0.00,WeatherDisplay:10.37,2013-02-03 11:37:00,
2013-02-03 06:42:00,54.1,53.5,30.09,South,180,1.1,1.1,98,0.00,CLR,,0.00,WeatherDisplay:10.37,2013-02-03 11:42:00,
2013-02-03 06:47:00,54.1,53.5,30.09,South,180,1.1,1.1,98,0.00,CLR,,0.00,WeatherDisplay:10.37,2013-02-03 11:47:00,
2013-02-03 06:52:00,54.1,53.5,30.09,South,180,1.1,1.1,98,0.00,CLR,,0.00,WeatherDisplay:10.37,2013-02-03 11:52:00,
2013-02-03 06:57:00,54.1,53.5,30.09,South,180,1.1,1.1,98,0.00,CLR,,0.00,WeatherDisplay:10.37,2013-02-03 11:57:00,
2013-02-03 07:02:00,54.1,53.5,30.09,South,180,1.1,1.1,98,0.00,CLR,,0.00,WeatherDisplay:10.37,2013-02-03 12:02:00,
2013-02-03 07:07:00,54.1,53.5,30.09,South,180,1.1,1.1,98,0.00,CLR,,0.00,WeatherDisplay:10.37,2013-02-03 12:07:00,
2013-02-03 07:12:00,54.1,53.5,30.09,South,180,1.1,1.1,98,0.00,CLR,,0.00,WeatherDisplay:10.37,2013-02-03 12:12:00,
2013-02-03 07:16:00,59.0,43.8,30.08,WNW,292,0.0,0.0,57,0.00,CLR,,0.00,WeatherDisplay:10.37,2013-02-03 12:16:00,
2013-02-03 07:17:00,54.1,53.5,30.09,South,180,1.1,1.1,98,0.00,CLR,,0.00,WeatherDisplay:10.37,2013-02-03 12:17:00,
2013-02-03 07:18:00,59.0,43.8,30.08,WNW,292,0.0,0.0,57,0.00,CLR,,0.00,WeatherDisplay:10.37,2013-02-03 12:18:00,
2013-02-03 07:19:00,59.0,43.8,30.08,WNW,292,0.0,0.0,57,0.00,CLR,,0.00,WeatherDisplay:10.37,2013-02-03 12:19:00,
2013-02-03 07:20:00,59.0,43.8,30.08,WNW,292,0.0,0.0,57,0.00,CLR,,0.00,WeatherDisplay:10.37,2013-02-03 12:20:00,
2013-02-03 07:22:00,54.1,53.5,30.09,South,180,1.1,1.1,98,0.00,CLR,,0.00,WeatherDisplay:10.37,2013-02-03 12:22:00,
2013-02-03 07:27:00,54.1,53.5,30.09,South,180,1.1,1.1,98,0.00,CLR,,0.00,WeatherDisplay:10.37,2013-02-03 12:27:00,
2013-02-03 07:32:00,54.1,53.5,30.09,South,180,1.1,1.1,98,0.00,CLR,,0.00,WeatherDisplay:10.37,2013-02-03 12:32:00,
2013-02-03 07:37:00,54.1,53.5,30.09,South,180,1.1,1.1,98,0.00,CLR,,0.00,WeatherDisplay:10.37,2013-02-03 12:37:00,
2013-02-03 07:42:00,54.1,53.5,30.09,South,180,1.1,1.1,98,0.00,CLR,,0.00,WeatherDisplay:10.37,2013-02-03 12:42:00,
2013-02-03 07:47:00,54.1,53.5,30.09,South,180,1.1,1.1,98,0.00,CLR,,0.00,WeatherDisplay:10.37,2013-02-03 12:47:00,
2013-02-03 07:52:00,54.1,53.5,30.09,South,180,1.1,1.1,98,0.00,CLR,,0.00,WeatherDisplay:10.37,2013-02-03 12:52:00,
2013-02-03 07:57:00,54.1,53.5,30.09,South,180,1.1,1.1,98,0.00,CLR,,0.00,WeatherDisplay:10.37,2013-02-03 12:57:00,
2013-02-03 08:02:00,54.1,53.5,30.09,South,180,1.1,1.1,98,0.00,CLR,,0.00,WeatherDisplay:10.37,2013-02-03 13:02:00,
2013-02-03 08:07:00,54.1,53.5,30.09,South,180,1.1,1.1,98,0.00,CLR,,0.00,WeatherDisplay:10.37,2013-02-03 13:07:00,
2013-02-03 08:12:00,54.1,53.5,30.09,South,180,1.1,1.1,98,0.00,CLR,,0.00,WeatherDisplay:10.37,2013-02-03 13:12:00,
2013-02-03 08:17:00,54.1,53.5,30.09,South,180,1.1,1.1,98,0.00,CLR,,0.00,WeatherDisplay:10.37,2013-02-03 13:17:00,
2013-02-03 08:22:00,54.1,53.5,30.09,South,180,1.1,1.1,98,0.00,CLR,,0.00,WeatherDisplay:10.37,2013-02-03 13:22:00,
2013-02-03 08:27:00,54.1,53.5,30.09,South,180,1.1,1.1,98,0.00,CLR,,0.00,WeatherDisplay:10.37,2013-02-03 13:27:00,
2013-02-03 08:32:00,54.1,53.5,30.09,South,180,1.1,1.1,98,0.00,CLR,,0.00,WeatherDisplay:10.37,2013-02-03 13:32:00,
2013-02-03 08:37:00,54.1,53.5,30.09,South,180,1.1,1.1,98,0.00,CLR,,0.00,WeatherDisplay:10.37,2013-02-03 13:37:00,
2013-02-03 08:42:00,54.1,53.5,30.09,South,180,1.1,1.1,98,0.00,CLR,,0.00,WeatherDisplay:10.37,2013-02-03 13:42:00,
2013-02-03 08:47:00,54.1,53.5,30.09,South,180,1.1,1.1,98,0.00,CLR,,0.00,WeatherDisplay:10.37,2013-02-03 13:47:00,
2013-02-03 08:52:00,54.1,53.5,30.09,South,180,1.1,1.1,98,0.00,CLR,,0.00,WeatherDisplay:10.37,2013-02-03 13:52:00,
2013-02-03 08:57:00,54.1,53.5,30.09,South,180,1.1,1.1,98,0.00,CLR,,0.00,WeatherDisplay:10.37,2013-02-03 13:57:00,
2013-02-03 09:03:00,54.1,53.5,30.09,South,180,1.1,1.1,98,0.00,CLR,,0.00,WeatherDisplay:10.37,2013-02-03 14:03:00,
2013-02-03 09:08:00,54.1,53.5,30.09,South,180,1.1,1.1,98,0.00,CLR,,0.00,WeatherDisplay:10.37,2013-02-03 14:08:00,
2013-02-03 09:13:00,54.1,53.5,30.09,South,180,1.1,1.1,98,0.00,CLR,,0.00,WeatherDisplay:10.37,2013-02-03 14:13:00,
2013-02-03 09:18:00,54.1,53.5,30.09,South,180,1.1,1.1,98,0.00,CLR,,0.00,WeatherDisplay:10.37,2013-02-03 14:18:00,
2013-02-03 09:23:00,54.1,53.5,30.09,South,180,1.1,1.1,98,0.00,CLR,,0.00,WeatherDisplay:10.37,2013-02-03 14:23:00,
2013-02-03 09:28:00,54.1,53.5,30.09,South,180,1.1,1.1,98,0.00,CLR,,0.00,WeatherDisplay:10.37,2013-02-03 14:28:00,
2013-02-03 09:33:00,54.1,53.5,30.09,South,180,1.1,1.1,98,0.00,CLR,,0.00,WeatherDisplay:10.37,2013-02-03 14:33:00,
2013-02-03 09:38:00,54.1,53.5,30.09,South,180,1.1,1.1,98,0.00,CLR,,0.00,WeatherDisplay:10.37,2013-02-03 14:38:00,
2013-02-03 09:43:00,54.1,53.5,30.09,South,180,1.1,1.1,98,0.00,CLR,,0.00,WeatherDisplay:10.37,2013-02-03 14:43:00,
2013-02-03 09:48:00,54.1,53.5,30.09,South,180,1.1,1.1,98,0.00,CLR,,0.00,WeatherDisplay:10.37,2013-02-03 14:48:00,
2013-02-03 09:53:00,54.1,53.5,30.09,South,180,1.1,1.1,98,0.00,CLR,,0.00,WeatherDisplay:10.37,2013-02-03 14:53:00,
2013-02-03 09:58:00,54.1,53.5,30.09,South,180,1.1,1.1,98,0.00,CLR,,0.00,WeatherDisplay:10.37,2013-02-03 14:58:00,
2013-02-03 10:03:00,54.1,53.5,30.09,South,180,1.1,1.1,98,0.00,CLR,,0.00,WeatherDisplay:10.37,2013-02-03 15:03:00,
2013-02-03 10:08:00,54.1,53.5,30.09,South,180,1.1,1.1,98,0.00,CLR,,0.00,WeatherDisplay:10.37,2013-02-03 15:08:00,
2013-02-03 10:13:00,54.1,53.5,30.09,South,180,1.1,1.1,98,0.00,CLR,,0.00,WeatherDisplay:10.37,2013-02-03 15:13:00,
2013-02-03 10:18:00,54.1,53.5,30.09,South,180,1.1,1.1,98,0.00,CLR,,0.00,WeatherDisplay:10.37,2013-02-03 15:18:00,
2013-02-03 10:23:00,54.1,53.5,30.09,South,180,1.1,1.1,98,0.00,CLR,,0.00,WeatherDisplay:10.37,2013-02-03 15:23:00,
2013-02-03 10:29:00,54.1,53.5,30.09,South,180,1.1,1.1,98,0.00,CLR,,0.00,WeatherDisplay:10.37,2013-02-03 15:29:00,
2013-02-03 10:34:00,54.1,53.5,30.09,South,180,1.1,1.1,98,0.00,CLR,,0.00,WeatherDisplay:10.37,2013-02-03 15:34:00,
2013-02-03 10:39:00,54.1,53.5,30.09,South,180,1.1,1.1,98,0.00,CLR,,0.00,WeatherDisplay:10.37,2013-02-03 15:39:00,
2013-02-03 10:44:00,54.1,53.5,30.09,South,180,1.1,1.1,98,0.00,CLR,,0.00,WeatherDisplay:10.37,2013-02-03 15:44:00,
2013-02-03 10:49:00,54.1,53.5,30.09,South,180,1.1,1.1,98,0.00,CLR,,0.00,WeatherDisplay:10.37,2013-02-03 15:49:00,
2013-02-03 10:54:00,54.1,53.5,30.09,South,180,1.1,1.1,98,0.00,CLR,,0.00,WeatherDisplay:10.37,2013-02-03 15:54:00,
2013-02-03 10:59:00,54.1,53.5,30.09,South,180,1.1,1.1,98,0.00,CLR,,0.00,WeatherDisplay:10.37,2013-02-03 15:59:00,
2013-02-03 11:04:00,54.1,53.5,30.09,South,180,1.1,1.1,98,0.00,CLR,,0.00,WeatherDisplay:10.37,2013-02-03 16:04:00,
2013-02-03 11:09:00,54.1,53.5,30.09,South,180,1.1,1.1,98,0.00,CLR,,0.00,WeatherDisplay:10.37,2013-02-03 16:09:00,
2013-02-03 11:14:00,54.1,53.5,30.09,South,180,1.1,1.1,98,0.00,CLR,,0.00,WeatherDisplay:10.37,2013-02-03 16:14:00,
2013-02-03 11:19:00,54.1,53.5,30.09,South,180,1.1,1.1,98,0.00,CLR,,0.00,WeatherDisplay:10.37,2013-02-03 16:19:00,
2013-02-03 11:24:00,54.1,53.5,30.09,South,180,1.1,1.1,98,0.00,CLR,,0.00,WeatherDisplay:10.37,2013-02-03 16:24:00,
2013-02-03 11:29:00,54.1,53.5,30.09,South,180,1.1,1.1,98,0.00,CLR,,0.00,WeatherDisplay:10.37,2013-02-03 16:29:00,
2013-02-03 11:34:00,54.1,53.5,30.09,South,180,1.1,1.1,98,0.00,CLR,,0.00,WeatherDisplay:10.37,2013-02-03 16:34:00,
2013-02-03 11:39:00,54.1,53.5,30.09,South,180,1.1,1.1,98,0.00,CLR,,0.00,WeatherDisplay:10.37,2013-02-03 16:39:00,
2013-02-03 11:44:00,54.1,53.5,30.09,South,180,1.1,1.1,98,0.00,CLR,,0.00,WeatherDisplay:10.37,2013-02-03 16:44:00,
2013-02-03 11:49:00,54.1,53.5,30.09,South,180,1.1,1.1,98,0.00,CLR,,0.00,WeatherDisplay:10.37,2013-02-03 16:49:00,
2013-02-03 11:54:00,54.1,53.5,30.09,South,180,1.1,1.1,98,0.00,CLR,,0.00,WeatherDisplay:10.37,2013-02-03 16:54:00,
2013-02-03 11:59:00,54.1,53.5,30.09,South,180,1.1,1.1,98,0.00,CLR,,0.00,WeatherDisplay:10.37,2013-02-03 16:59:00,
2013-02-03 12:04:00,54.1,53.5,30.09,South,180,1.1,1.1,98,0.00,CLR,,0.00,WeatherDisplay:10.37,2013-02-03 17:04:00,
2013-02-03 12:09:00,54.1,53.5,30.09,South,180,1.1,1.1,98,0.00,CLR,,0.00,WeatherDisplay:10.37,2013-02-03 17:09:00,
2013-02-03 12:14:00,54.1,53.5,30.09,South,180,1.1,1.1,98,0.00,CLR,,0.00,WeatherDisplay:10.37,2013-02-03 17:14:00,
2013-02-03 12:19:00,54.1,53.5,30.09,South,180,1.1,1.1,98,0.00,CLR,,0.00,WeatherDisplay:10.37,2013-02-03 17:19:00,
2013-02-03 12:24:00,54.1,53.5,30.09,South,180,1.1,1.1,98,0.00,CLR,,0.00,WeatherDisplay:10.37,2013-02-03 17:24:00,
2013-02-03 12:29:00,54.1,53.5,30.09,South,180,1.1,1.1,98,0.00,CLR,,0.00,WeatherDisplay:10.37,2013-02-03 17:29:00,
2013-02-03 12:34:00,54.1,53.5,30.09,South,180,1.1,1.1,98,0.00,CLR,,0.00,WeatherDisplay:10.37,2013-02-03 17:34:00,
2013-02-03 12:39:00,54.1,53.5,30.09,South,180,1.1,1.1,98,0.00,CLR,,0.00,WeatherDisplay:10.37,2013-02-03 17:39:00,
2013-02-03 12:44:00,54.1,53.5,30.09,South,180,1.1,1.1,98,0.00,CLR,,0.00,WeatherDisplay:10.37,2013-02-03 17:44:00,
2013-02-03 12:49:00,54.1,53.5,30.09,South,180,1.1,1.1,98,0.00,CLR,,0.00,WeatherDisplay:10.37,2013-02-03 17:49:00,
2013-02-03 12:54:00,54.1,53.5,30.09,South,180,1.1,1.1,98,0.00,CLR,,0.00,WeatherDisplay:10.37,2013-02-03 17:54:00,
2013-02-03 12:59:00,54.1,53.5,30.09,South,180,1.1,1.1,98,0.00,CLR,,0.00,WeatherDisplay:10.37,2013-02-03 17:59:00,
2013-02-03 13:04:00,54.1,53.5,30.09,South,180,1.1,1.1,98,0.00,CLR,,0.00,WeatherDisplay:10.37,2013-02-03 18:04:00,
2013-02-03 13:09:00,54.1,53.5,30.09,South,180,1.1,1.1,98,0.00,CLR,,0.00,WeatherDisplay:10.37,2013-02-03 18:09:00,
2013-02-03 13:14:00,54.1,53.5,30.09,South,180,1.1,1.1,98,0.00,CLR,,0.00,WeatherDisplay:10.37,2013-02-03 18:14:00,
2013-02-03 13:19:00,54.1,53.5,30.09,South,180,1.1,1.1,98,0.00,CLR,,0.00,WeatherDisplay:10.37,2013-02-03 18:19:00,
2013-02-03 13:24:00,54.1,53.5,30.09,South,180,1.1,1.1,98,0.00,CLR,,0.00,WeatherDisplay:10.37,2013-02-03 18:24:00,
2013-02-03 13:29:00,54.1,53.5,30.09,South,180,1.1,1.1,98,0.00,CLR,,0.00,WeatherDisplay:10.37,2013-02-03 18:29:00,
2013-02-03 13:34:00,54.1,53.5,30.09,South,180,1.1,1.1,98,0.00,CLR,,0.00,WeatherDisplay:10.37,2013-02-03 18:34:00,
2013-02-03 13:39:00,54.1,53.5,30.09,South,180,1.1,1.1,98,0.00,CLR,,0.00,WeatherDisplay:10.37,2013-02-03 18:39:00,
2013-02-03 13:44:00,54.1,53.5,30.09,South,180,1.1,1.1,98,0.00,CLR,,0.00,WeatherDisplay:10.37,2013-02-03 18:44:00,
2013-02-03 13:49:00,54.1,53.5,30.09,South,180,1.1,1.1,98,0.00,CLR,,0.00,WeatherDisplay:10.37,2013-02-03 18:49:00,
2013-02-03 13:54:00,54.1,53.5,30.09,South,180,1.1,1.1,98,0.00,CLR,,0.00,WeatherDisplay:10.37,2013-02-03 18:54:00,
2013-02-03 14:00:00,54.1,53.5,30.09,South,180,1.0,0.0,98,0.00,CLR,,0.00,WeatherDisplay:10.37,2013-02-03 19:00:00,
2013-02-03 14:05:00,54.1,53.5,30.09,South,180,1.0,0.0,98,0.00,CLR,,0.00,WeatherDisplay:10.37,2013-02-03 19:05:00,
2013-02-03 14:10:00,54.1,53.5,30.09,South,180,1.0,0.0,98,0.00,CLR,,0.00,WeatherDisplay:10.37,2013-02-03 19:10:00,
2013-02-03 14:15:00,69.8,69.2,30.07,NNE,31,5.0,0.0,98,0.00,CLR,,0.00,WeatherDisplay:10.37,2013-02-03 19:15:00,
2013-02-03 14:20:00,75.4,46.6,30.07,WNW,292,6.0,0.0,36,0.00,CLR,,0.00,WeatherDisplay:10.37,2013-02-03 19:20:00,
2013-02-03 14:25:00,74.0,45.3,30.07,North,349,7.0,0.0,36,0.00,CLR,,0.00,WeatherDisplay:10.37,2013-02-03 19:25:00,
2013-02-03 14:30:00,74.5,39.2,30.07,North,5,10.0,0.0,28,0.00,CLR,,0.00,WeatherDisplay:10.37,2013-02-03 19:30:00,
2013-02-03 14:35:00,74.1,41.5,30.07,North,358,6.0,0.0,31,0.00,CLR,,0.00,WeatherDisplay:10.37,2013-02-03 19:35:00,
2013-02-03 14:40:00,73.8,42.9,30.08,NNW,346,8.0,0.0,33,0.00,CLR,,0.00,WeatherDisplay:10.37,2013-02-03 19:40:00,
2013-02-03 14:50:00,73.9,42.2,30.08,NNW,333,5.0,0.0,32,0.00,CLR,,0.00,WeatherDisplay:10.37,2013-02-03 19:50:00,
2013-02-03 14:55:00,74.6,43.6,30.07,NNW,338,5.0,0.0,33,0.00,CLR,,0.00,WeatherDisplay:10.37,2013-02-03 19:55:00,
2013-02-03 15:00:00,73.4,42.6,30.07,NNW,328,5.0,0.0,33,0.00,CLR,,0.00,WeatherDisplay:10.37,2013-02-03 20:00:00,
2013-02-03 15:05:00,73.6,46.4,30.07,NNW,332,7.0,0.0,38,0.00,CLR,,0.00,WeatherDisplay:10.37,2013-02-03 20:05:00,
2013-02-03 15:10:00,73.4,48.9,30.07,North,0,9.0,0.0,42,0.00,CLR,,0.00,WeatherDisplay:10.37,2013-02-03 20:10:00,
2013-02-03 15:15:00,73.1,48.0,30.07,NNE,31,7.0,0.0,41,0.00,CLR,,0.00,WeatherDisplay:10.37,2013-02-03 20:15:00,
2013-02-03 15:20:00,72.5,46.8,30.07,NNE,28,10.0,0.0,40,0.00,CLR,,0.00,WeatherDisplay:10.37,2013-02-03 20:20:00,
2013-02-03 15:25:00,72.2,47.2,30.07,NE,34,12.0,0.0,41,0.00,CLR,,0.00,WeatherDisplay:10.37,2013-02-03 20:25:00,
2013-02-03 15:30:00,71.6,46.6,30.07,NE,48,9.0,0.0,41,0.00,CLR,,0.00,WeatherDisplay:10.37,2013-02-03 20:30:00,
2013-02-03 15:35:00,71.3,47.7,30.07,NE,40,8.0,0.0,43,0.00,CLR,,0.00,WeatherDisplay:10.37,2013-02-03 20:35:00,
2013-02-03 15:40:00,71.8,48.1,30.07,NE,43,8.0,0.0,43,0.00,CLR,,0.00,WeatherDisplay:10.37,2013-02-03 20:40:00,
2013-02-03 15:45:00,71.5,47.2,30.07,NE,45,9.0,0.0,42,0.00,CLR,,0.00,WeatherDisplay:10.37,2013-02-03 20:45:00,
2013-02-03 15:50:00,71.3,47.6,30.07,NE,56,7.0,0.0,43,0.00,CLR,,0.00,WeatherDisplay:10.37,2013-02-03 20:50:00,
2013-02-03 15:55:00,71.2,47.6,30.07,ENE,70,9.0,0.0,43,0.00,CLR,,0.00,WeatherDisplay:10.37,2013-02-03 20:55:00,
2013-02-03 16:05:00,70.7,47.1,30.07,NE,51,8.0,0.0,43,0.00,CLR,,0.00,WeatherDisplay:10.37,2013-02-03 21:05:00,
2013-02-03 16:10:00,70.6,46.4,30.07,NE,39,9.0,0.0,42,0.00,CLR,,0.00,WeatherDisplay:10.37,2013-02-03 21:10:00,
2013-02-03 16:15:00,70.3,47.3,30.07,NNE,32,9.0,0.0,44,0.00,CLR,,0.00,WeatherDisplay:10.37,2013-02-03 21:15:00,
2013-02-03 16:20:00,70.7,47.7,30.07,NE,43,6.0,0.0,44,0.00,CLR,,0.00,WeatherDisplay:10.37,2013-02-03 21:20:00,
2013-02-03 16:25:00,70.3,47.3,30.07,NNE,26,10.0,0.0,44,0.00,CLR,,0.00,WeatherDisplay:10.37,2013-02-03 21:25:00,
2013-02-03 16:30:00,69.8,46.3,30.07,NNE,16,7.0,0.0,43,0.00,CLR,,0.00,WeatherDisplay:10.37,2013-02-03 21:30:00,
2013-02-03 16:35:00,69.4,45.9,30.07,NNE,23,10.0,0.0,43,0.00,CLR,,0.00,WeatherDisplay:10.37,2013-02-03 21:35:00,
2013-02-03 16:40:00,69.4,45.9,30.07,NNE,30,10.0,0.0,43,0.00,CLR,,0.00,WeatherDisplay:10.37,2013-02-03 21:40:00,
2013-02-03 16:45:00,69.3,45.2,30.07,NE,34,9.0,0.0,42,0.00,CLR,,0.00,WeatherDisplay:10.37,2013-02-03 21:45:00,
2013-02-03 16:50:00,69.3,45.8,30.07,NNE,32,7.0,0.0,43,0.00,CLR,,0.00,WeatherDisplay:10.37,2013-02-03 21:50:00,
2013-02-03 16:55:00,69.1,45.7,30.07,NE,41,9.0,0.0,43,0.00,CLR,,0.00,WeatherDisplay:10.37,2013-02-03 21:55:00,
2013-02-03 17:00:00,68.9,44.9,30.07,NE,40,7.0,0.0,42,0.00,CLR,,0.00,WeatherDisplay:10.37,2013-02-03 22:00:00,
2013-02-03 17:05:00,68.7,44.7,30.07,NE,41,9.0,0.0,42,0.00,CLR,,0.00,WeatherDisplay:10.37,2013-02-03 22:05:00,
2013-02-03 17:10:00,68.9,44.2,30.07,NE,39,7.0,0.0,41,0.00,CLR,,0.00,WeatherDisplay:10.37,2013-02-03 22:10:00,
2013-02-03 17:15:00,68.7,44.0,30.07,North,7,6.0,0.0,41,0.00,CLR,,0.00,WeatherDisplay:10.37,2013-02-03 22:15:00,
2013-02-03 17:20:00,68.5,44.5,30.07,NNE,15,7.0,0.0,42,0.00,CLR,,0.00,WeatherDisplay:10.37,2013-02-03 22:20:00,
2013-02-03 17:25:00,68.4,44.4,30.07,NNE,24,8.0,0.0,42,0.00,CLR,,0.00,WeatherDisplay:10.37,2013-02-03 22:25:00,
2013-02-03 17:30:00,68.4,43.8,30.07,NNE,26,5.0,0.0,41,0.00,CLR,,0.00,WeatherDisplay:10.37,2013-02-03 22:30:00,
2013-02-03 17:35:00,68.4,43.1,30.07,NNE,21,7.0,0.0,40,0.00,CLR,,0.00,WeatherDisplay:10.37,2013-02-03 22:35:00,
2013-02-03 17:40:00,68.4,43.1,30.08,North,1,3.0,0.0,40,0.00,CLR,,0.00,WeatherDisplay:10.37,2013-02-03 22:40:00,
2013-02-03 17:45:00,68.2,42.3,30.08,North,356,5.0,0.0,39,0.00,CLR,,0.00,WeatherDisplay:10.37,2013-02-03 22:45:00,
2013-02-03 17:50:00,68.2,42.9,30.08,North,351,5.0,0.0,40,0.00,CLR,,0.00,WeatherDisplay:10.37,2013-02-03 22:50:00,
2013-02-03 17:55:00,68.0,42.8,30.08,North,351,3.0,0.0,40,0.00,CLR,,0.00,WeatherDisplay:10.37,2013-02-03 22:55:00,
2013-02-03 18:00:00,67.4,42.9,30.08,North,11,2.0,0.0,41,0.00,CLR,,0.00,WeatherDisplay:10.37,2013-02-03 23:00:00,
2013-02-03 18:05:00,66.9,43.0,30.08,NNE,17,2.0,0.0,42,0.00,CLR,,0.00,WeatherDisplay:10.37,2013-02-03 23:05:00,
2013-02-03 18:10:00,66.4,42.6,30.08,North,4,2.0,0.0,42,0.00,CLR,,0.00,WeatherDisplay:10.37,2013-02-03 23:10:00,
2013-02-03 18:15:00,65.8,42.7,30.08,North,357,2.0,0.0,43,0.00,CLR,,0.00,WeatherDisplay:10.37,2013-02-03 23:15:00,
2013-02-03 18:20:00,65.4,42.3,30.08,North,3,2.0,0.0,43,0.00,CLR,,0.00,WeatherDisplay:10.37,2013-02-03 23:20:00,
2013-02-03 18:25:00,64.9,42.5,30.08,North,357,2.0,0.0,44,0.00,CLR,,0.00,WeatherDisplay:10.37,2013-02-03 23:25:00,
2013-02-03 18:30:00,64.4,42.6,30.08,North,349,3.0,0.0,45,0.00,CLR,,0.00,WeatherDisplay:10.37,2013-02-03 23:30:00,
2013-02-03 18:35:00,64.2,42.4,30.08,North,352,2.0,0.0,45,0.00,CLR,,0.00,WeatherDisplay:10.37,2013-02-03 23:35:00,
2013-02-03 18:40:00,63.9,42.7,30.08,NNW,340,0.0,0.0,46,0.00,CLR,,0.00,WeatherDisplay:10.37,2013-02-03 23:40:00,
2013-02-03 18:45:00,63.3,43.3,30.08,WNW,302,0.0,0.0,48,0.00,CLR,,0.00,WeatherDisplay:10.37,2013-02-03 23:45:00,
2013-02-03 18:50:00,62.6,44.2,30.08,WNW,292,0.0,0.0,51,0.00,CLR,,0.00,WeatherDisplay:10.37,2013-02-03 23:50:00,
2013-02-03 18:55:00,61.7,43.9,30.08,WNW,292,0.0,0.0,52,0.00,CLR,,0.00,WeatherDisplay:10.37,2013-02-03 23:55:00,
2013-02-03 19:05:00,61.0,44.2,30.08,WNW,292,0.0,0.0,54,0.00,CLR,,0.00,WeatherDisplay:10.37,2013-02-04 00:05:00,
2013-02-03 19:10:00,60.4,44.2,30.08,WNW,292,0.0,0.0,55,0.00,CLR,,0.00,WeatherDisplay:10.37,2013-02-04 00:10:00,
2013-02-03 19:15:00,59.7,44.0,30.08,WNW,292,0.0,0.0,56,0.00,CLR,,0.00,WeatherDisplay:10.37,2013-02-04 00:15:00,
2013-02-03 19:20:00,59.0,44.2,30.08,WNW,292,0.0,0.0,58,0.00,CLR,,0.00,WeatherDisplay:10.37,2013-02-04 00:20:00,
2013-02-03 19:25:00,58.6,44.8,30.08,WNW,292,0.0,0.0,60,0.00,CLR,,0.00,WeatherDisplay:10.37,2013-02-04 00:25:00,
2013-02-03 19:30:00,58.5,44.7,30.08,WNW,292,0.0,0.0,60,0.00,CLR,,0.00,WeatherDisplay:10.37,2013-02-04 00:30:00,
2013-02-03 19:35:00,58.3,44.5,30.08,NW,315,0.0,0.0,60,0.00,CLR,,0.00,WeatherDisplay:10.37,2013-02-04 00:35:00,
2013-02-03 19:40:00,57.9,45.0,30.08,SW,225,0.0,0.0,62,0.00,CLR,,0.00,WeatherDisplay:10.37,2013-02-04 00:40:00,
2013-02-03 19:45:00,57.4,44.9,30.08,West,270,2.7,2.7,63,0.00,CLR,,0.00,WeatherDisplay:10.37,2013-02-04 00:45:00,
2013-02-03 19:50:00,57.6,44.2,30.09,West,270,2.7,2.7,61,0.00,CLR,,0.00,WeatherDisplay:10.37,2013-02-04 00:50:00,
2013-02-03 19:55:00,57.6,44.2,30.09,West,270,2.3,2.3,61,0.00,CLR,,0.00,WeatherDisplay:10.37,2013-02-04 00:55:00,
2013-02-03 20:00:00,57.6,44.2,30.09,West,270,2.3,2.3,61,0.00,CLR,,0.00,WeatherDisplay:10.37,2013-02-04 01:00:00,
2013-02-03 20:05:00,57.4,44.5,30.09,West,270,1.1,0.0,62,0.00,CLR,,0.00,WeatherDisplay:10.37,2013-02-04 01:05:00,
2013-02-03 20:10:00,56.8,44.7,30.09,West,270,1.1,0.0,64,0.00,CLR,,0.00,WeatherDisplay:10.37,2013-02-04 01:10:00,
2013-02-03 20:15:00,56.5,45.3,30.09,West,270,1.1,0.0,66,0.00,CLR,,0.00,WeatherDisplay:10.37,2013-02-04 01:15:00,
2013-02-03 20:20:00,55.9,45.1,30.09,West,270,0.0,0.0,67,0.00,CLR,,0.00,WeatherDisplay:10.37,2013-02-04 01:20:00,
2013-02-03 20:25:00,55.4,44.6,30.09,West,270,0.0,0.0,67,0.00,CLR,,0.00,WeatherDisplay:10.37,2013-02-04 01:25:00,
2013-02-03 20:30:00,55.2,44.8,30.10,West,270,0.0,0.0,68,0.00,CLR,,0.00,WeatherDisplay:10.37,2013-02-04 01:30:00,
2013-02-03 20:35:00,55.0,44.6,30.10,WSW,248,1.7,0.0,68,0.00,CLR,,0.00,WeatherDisplay:10.37,2013-02-04 01:35:00,
2013-02-03 20:40:00,54.9,44.9,30.10,West,270,1.1,1.1,69,0.00,CLR,,0.00,WeatherDisplay:10.37,2013-02-04 01:40:00,
2013-02-03 20:45:00,54.7,45.5,30.10,West,270,0.0,0.0,71,0.00,CLR,,0.00,WeatherDisplay:10.37,2013-02-04 01:45:00,
2013-02-03 20:50:00,54.5,45.3,30.10,West,270,1.7,1.7,71,0.00,CLR,,0.00,WeatherDisplay:10.37,2013-02-04 01:50:00,
2013-02-03 20:55:00,54.7,45.1,30.10,West,270,2.3,2.3,70,0.00,CLR,,0.00,WeatherDisplay:10.37,2013-02-04 01:55:00,
2013-02-03 21:00:00,55.0,45.0,30.10,West,270,2.7,2.7,69,0.00,CLR,,0.00,WeatherDisplay:10.37,2013-02-04 02:00:00,
2013-02-03 21:05:00,55.0,45.0,30.10,West,270,1.7,1.7,69,0.00,CLR,,0.00,WeatherDisplay:10.37,2013-02-04 02:05:00,
2013-02-03 21:10:00,54.9,45.3,30.10,West,270,2.3,2.3,70,0.00,CLR,,0.00,WeatherDisplay:10.37,2013-02-04 02:10:00,
2013-02-03 21:15:00,54.3,45.1,30.10,ENE,68,0.0,0.0,71,0.00,CLR,,0.00,WeatherDisplay:10.37,2013-02-04 02:15:00,
2013-02-03 21:20:00,54.0,44.8,30.10,NW,315,0.0,0.0,71,0.00,CLR,,0.00,WeatherDisplay:10.37,2013-02-04 02:20:00,
2013-02-03 21:25:00,53.6,45.5,30.10,NW,315,0.0,0.0,74,0.00,CLR,,0.00,WeatherDisplay:10.37,2013-02-04 02:25:00,
2013-02-03 21:30:00,53.4,46.0,30.10,West,270,0.0,0.0,76,0.00,CLR,,0.00,WeatherDisplay:10.37,2013-02-04 02:30:00,
2013-02-03 21:35:00,53.1,46.1,30.10,NW,315,0.0,0.0,77,0.00,CLR,,0.00,WeatherDisplay:10.37,2013-02-04 02:35:00,
2013-02-03 21:40:00,53.1,45.7,30.10,NW,315,2.3,2.3,76,0.00,CLR,,0.00,WeatherDisplay:10.37,2013-02-04 02:40:00,
2013-02-03 21:45:00,53.2,45.5,30.10,NW,315,2.3,2.3,75,0.00,CLR,,0.00,WeatherDisplay:10.37,2013-02-04 02:45:00,
2013-02-03 21:50:00,54.0,45.5,30.11,WNW,292,2.7,2.7,73,0.00,CLR,,0.00,WeatherDisplay:10.37,2013-02-04 02:50:00,
2013-02-03 21:55:00,54.1,45.3,30.11,WNW,292,2.3,2.3,72,0.00,CLR,,0.00,WeatherDisplay:10.37,2013-02-04 02:55:00,
2013-02-03 22:00:00,54.3,45.1,30.11,WNW,292,2.3,2.3,71,0.00,CLR,,0.00,WeatherDisplay:10.37,2013-02-04 03:00:00,
2013-02-03 22:05:00,54.5,45.3,30.11,WNW,292,2.7,2.7,71,0.00,CLR,,0.00,WeatherDisplay:10.37,2013-02-04 03:05:00,
2013-02-03 22:10:00,54.7,45.5,30.11,NW,315,2.3,2.3,71,0.00,CLR,,0.00,WeatherDisplay:10.37,2013-02-04 03:10:00,
2013-02-03 22:15:00,54.7,45.5,30.11,WNW,292,2.7,2.7,71,0.00,CLR,,0.00,WeatherDisplay:10.37,2013-02-04 03:15:00,
2013-02-03 22:20:00,54.7,45.5,30.11,West,270,2.3,2.3,71,0.00,CLR,,0.00,WeatherDisplay:10.37,2013-02-04 03:20:00,
2013-02-03 22:25:00,54.7,45.5,30.11,West,270,1.1,1.1,71,0.00,CLR,,0.00,WeatherDisplay:10.37,2013-02-04 03:25:00,
2013-02-03 22:30:00,54.1,45.3,30.11,West,270,1.1,0.0,72,0.00,CLR,,0.00,WeatherDisplay:10.37,2013-02-04 03:30:00,
2013-02-03 22:35:00,53.8,45.7,30.11,West,270,0.0,0.0,74,0.00,CLR,,0.00,WeatherDisplay:10.37,2013-02-04 03:35:00,
2013-02-03 22:40:00,53.6,45.5,30.11,WNW,292,2.3,2.3,74,0.00,CLR,,0.00,WeatherDisplay:10.37,2013-02-04 03:40:00,
2013-02-03 22:45:00,53.6,45.5,30.11,NW,315,2.7,2.7,74,0.00,CLR,,0.00,WeatherDisplay:10.37,2013-02-04 03:45:00,
2013-02-03 22:50:00,53.6,45.2,30.12,NW,315,2.3,2.3,73,0.00,CLR,,0.00,WeatherDisplay:10.37,2013-02-04 03:50:00,
2013-02-03 22:55:00,53.6,45.2,30.12,WNW,292,1.1,0.0,73,0.00,CLR,,0.00,WeatherDisplay:10.37,2013-02-04 03:55:00,
2013-02-03 23:00:00,52.7,45.7,30.12,SSE,158,0.0,0.0,77,0.00,CLR,,0.00,WeatherDisplay:10.37,2013-02-04 04:00:00,
2013-02-03 23:05:00,52.3,45.6,30.11,SE,135,0.0,0.0,78,0.00,CLR,,0.00,WeatherDisplay:10.37,2013-02-04 04:05:00,
2013-02-03 23:10:00,52.3,46.0,30.11,SSE,158,0.0,0.0,79,0.00,CLR,,0.00,WeatherDisplay:10.37,2013-02-04 04:10:00,
2013-02-03 23:15:00,52.0,45.4,30.11,South,180,0.0,0.0,78,0.00,CLR,,0.00,WeatherDisplay:10.37,2013-02-04 04:15:00,
2013-02-03 23:20:00,51.6,44.6,30.11,WNW,292,0.0,0.0,77,0.00,CLR,,0.00,WeatherDisplay:10.37,2013-02-04 04:20:00,
2013-02-03 23:25:00,51.1,45.8,30.11,WNW,292,0.0,0.0,82,0.00,CLR,,0.00,WeatherDisplay:10.37,2013-02-04 04:25:00,
2013-02-03 23:30:00,51.1,45.8,30.11,NW,315,0.0,0.0,82,0.00,CLR,,0.00,WeatherDisplay:10.37,2013-02-04 04:30:00,
2013-02-03 23:35:00,50.7,45.1,30.11,NW,315,0.0,0.0,81,0.00,CLR,,0.00,WeatherDisplay:10.37,2013-02-04 04:35:00,
2013-02-03 23:40:00,50.4,44.8,30.10,NW,315,0.0,0.0,81,0.00,CLR,,0.00,WeatherDisplay:10.37,2013-02-04 04:40:00,
2013-02-03 23:45:00,50.0,45.0,30.10,NW,315,0.0,0.0,83,0.00,CLR,,0.00,WeatherDisplay:10.37,2013-02-04 04:45:00,
2013-02-03 23:50:00,50.0,45.7,30.11,SSE,158,0.0,0.0,85,0.00,CLR,,0.00,WeatherDisplay:10.37,2013-02-04 04:50:00,
2013-02-03 23:55:00,50.0,46.0,30.11,SSE,158,0.0,0.0,86,0.00,CLR,,0.00,WeatherDisplay:10.37,2013-02-04 04:55:00,